Find WHDW 07-01

NORAD ID: 65106 Int'l Des: 2025-168 Owner: ZXW Country: CN Constellation: xingwang operational
LEOCIRCULAR

リアルタイム位置

3D地球を読み込み中...

WHDW 07-01について

説明を読み込み中...

次回通過

Passes for default location (London). Set your location on the main map for personalized predictions.

高度履歴

Loading altitude history...

軌道要素

1 65106U 25168A 26106.66418951 -.00000065 00000-0 12624-3 0 9995
2 65106 50.0019 186.6224 0008079 276.4903 83.5049 13.29314633 34505
Epoch: Apr 16, 2026 • Age: 5 hours

現在のステータス

高度 1149.3 km
速度 7.28 km/s
衛星直下点 5.95°N, 24.88°E
打ち上げ日 Aug 4, 2025
運用期間 0.6 years
タイプ other

技術仕様

分類 Payload
質量 800.00 kg
乾燥質量 800.00 kg
総質量 800.00 kg
長さ 3.00 m
直径 1.00 m
スパン 10.00 m
形状 Box + 2 Pan
製造者 YINNT
バスタイプ Xingwang Y
フェーズステータス In Orbit
所有者/国 ZXW/CN

Most Searched